Regional Weather Roundup
Issued by NWS Charleston, WV

Home | Current Version | Previous Version | Graphics & Text | Print | Product List | Glossary On
Versions: 1 2 3 4 5 6 7 8 9 10 11 12 13 14 15 16 17 18 19 20 21 22 23 24 25 26 27 28 29 30 31 32 33 34 35 36 37 38 39 40 41 42 43 44 45 46 47 48 49 50
000
ASUS41 KRLX 041010
RWRRLX
West Virginia Regional Weather Roundup
National Weather Service Charleston WV
500 AM EST WED MAR 04 2015

Note: "fair" indicates few or no clouds below 12,000 feet with no
significant weather and/or obstructions to visibility.

WVZ003-041100-
Northern Panhandle of West Virginia

CITY           SKY/WX    TMP DP  RH WIND       PRES   REMARKS
WHEELING       LGT RAIN  36  35  96 SW6       29.87R FOG
$$

WVZ009-041100-
Northwest West Virginia

CITY           SKY/WX    TMP DP  RH WIND       PRES   REMARKS
PARKERSBURG    LGT RAIN  40  39  97 CALM      29.93R FOG
$$

WVZ006-041100-
Western West Virginia

CITY           SKY/WX    TMP DP  RH WIND       PRES   REMARKS
HUNTINGTON     LGT RAIN  46  46 100 VRB5      29.91R FOG
$$

WVZ015-041100-
West Central West Virginia

CITY           SKY/WX    TMP DP  RH WIND       PRES   REMARKS
CHARLESTON     LGT RAIN  50  47  89 W5        29.87S FOG
$$

WVZ022-031-041100-
North Central West Virginia

CITY           SKY/WX    TMP DP  RH WIND       PRES   REMARKS
CLARKSBURG     RAIN      44  43  96 W6        29.88R FOG
MORGANTOWN     LGT RAIN  44  40  85 SW5       29.86R FOG
$$

WVZ025-035-042-045-041100-
Southern West Virginia

CITY           SKY/WX    TMP DP  RH WIND       PRES   REMARKS
BECKLEY        LGT RAIN  47  46  97 VRB3      29.88R FOG
LOGAN          DRIZZLE   52  50  93 CALM      29.85R
BLUEFIELD      LGT RAIN  56  51  84 W15G25    29.88S
LEWISBURG      LGT RAIN  41  40  96 CALM      29.88S VSB 3/4
$$

WVZ047-041100-
Northern Mountains of West Virginia

CITY           SKY/WX    TMP DP  RH WIND       PRES   REMARKS
ELKINS         LGT RAIN  48  46  93 W8        29.87R
$$

WVZ052-041100-
Eastern Panhandle of West Virginia

CITY           SKY/WX    TMP DP  RH WIND       PRES   REMARKS
MARTINSBURG    CLOUDY    37  34  89 NW3       29.83R FOG
PETERSBURG     MOCLDY    44  44 100 CALM      29.82R FOG
$$


USA.gov is the U.S. government's official web portal to all federal, state and local government web resources and services.